Regional Weather Roundup
Issued by NWS Northern Indiana

Home | Current Version | Previous Version | Text Only | Print | Product List | Glossary On
Versions: 1 2 3 4 5 6 7 8 9 10 11 12 13 14 15 16 17 18 19 20 21 22 23 24 25 26 27 28 29 30 31 32 33 34 35 36 37 38 39 40 41 42 43 44 45 46 47 48 49 50
000
ASUS43 KIWX 180110
RWRIWX

KIWX WEATHER ROUNDUP
NATIONAL WEATHER SERVICE NORTHERN INDIANA
900 PM EDT WED SEP 17 2014

NOTE: "FAIR" INDICATES FEW OR NO CLOUDS BELOW 12,000 FEET WITH NO
SIGNIFICANT WEATHER AND/OR OBSTRUCTIONS TO VISIBILITY.

* THESE STATIONS ARE NOT UNDER NWS QUALITY CONTROL. THEY ALSO MAY NOT
  REPORT WEATHER SUCH AS PRECIPITATION OR FOG.

INZ001>027-180200-
NORTHERN INDIANA

CITY           SKY/WX    TMP DP  RH WIND       PRES   REMARKS
GARY*          CLEAR     61  50  67 E3        30.00R
VALPARAISO     CLEAR     56  48  74 NE3       30.00R
MICHIGAN CITY* CLEAR     50  50 100 CALM      30.01R
LAPORTE*       PTCLDY    51  49  95 CALM      30.01R
KNOX*          CLEAR     56  47  72 NE6       29.99R
SOUTH BEND     CLEAR     53  45  74 CALM      30.01S
ELKHART*       PTCLDY    54  45  71 CALM      30.01R
GOSHEN         CLEAR     56  45  66 N5        30.00R
MONTICELLO*    CLEAR     55  53  91 CALM      29.97R
LOGANSPORT*    CLEAR     54  48  82 N3        29.99R
ROCHESTER*     CLEAR     61  50  67 CALM      30.00R
WARSAW*        CLEAR     55  46  71 N3        30.00R
ANGOLA*        CLEAR     54  50  87 CALM      30.00R
FORT WAYNE     PTCLDY    56  51  84 CALM      29.99S
HUNTINGTON*    CLEAR     53  51  92 CALM      29.98S
PERU/GRISSOM   CLEAR     57  56  95 CALM      29.98R
MARION*        CLEAR     55  49  81 CALM      29.99R

$$
INZ028>050-180200-
CENTRAL INDIANA

CITY           SKY/WX    TMP DP  RH WIND       PRES   REMARKS
LAFAYETTE      MOCLDY    55  52  89 NW3       29.98R
KOKOMO*        CLEAR     55  48  76 E3        29.98R
MUNCIE*        CLEAR     55  49  80 CALM      29.98S
INDIANAPOLIS   PTCLDY    60  49  66 CALM      29.97R

$$
MIZ043>046-050>051-056>058-064>065-071>073-077>080-180200-
SOUTHWEST LOWER MICHIGAN

CITY           SKY/WX    TMP DP  RH WIND       PRES   REMARKS
BATTLE CREEK   CLEAR     57  47  69 N3        30.01R
BENTON HARBOR  CLEAR     50  48  93 CALM      30.00R
COLDWATER*     CLEAR     54  48  80 CALM      30.00R
HILLSDALE*     CLEAR     48  47  93 CALM      30.00R
HOLLAND        CLEAR     52  48  86 CALM      30.01R
GRAND RAPIDS   CLEAR     58  45  62 NW5       30.01R
KALAMAZOO      CLEAR     56  46  69 CALM      30.01R
STURGIS*       CLEAR     52  48  87 CALM      30.00R
THREE RIVERS*  FAIR      54  47  78 CALM      30.01R

$$
OHZ001>008-015>018-024>025-180200-
NORTHWEST OHIO

CITY           SKY/WX    TMP DP  RH WIND       PRES   REMARKS
DEFIANCE       CLEAR     54  49  83 CALM      29.99R
FINDLAY        PTCLDY    59  48  67 CALM      29.99R
TOLEDO EXPRESS MOCLDY    55  51  86 CALM      29.99R
TOLEDO METCALF CLOUDY    62  47  57 N3        29.99R
LIMA           CLEAR     56  51  84 CALM      29.99S

$$
&&



USA.gov is the U.S. government's official web portal to all federal, state and local government web resources and services.